Weather Roundup
Issued by NWS Corpus Christi, TX

Home | Current Version | Previous Version | Text Only | Print | Product List | Glossary On
Versions: 1 2 3 4 5 6 7 8 9 10 11 12 13 14 15 16 17 18 19 20 21 22 23 24 25 26 27 28 29 30 31 32 33 34 35 36 37 38 39 40 41 42 43 44 45 46 47 48 49 50
000
ASUS44 KCRP 280410
HRRCRP

SOUTH TEXAS REGIONAL WEATHER ROUNDUP
NATIONAL WEATHER SERVICE CORPUS CHRISTI TX
1000 PM CST SAT DEC 27 2014


TXZ229>244-280500-
...CORPUS CHRISTI AREA OBSERVATIONS...

CITY           SKY/WX    TMP DP  RH WIND       PRES   REMARKS
CORPUS CHRISTI LGT RAIN  51  44  77 N21G26    30.22R
NAS CORPUS CHR CLOUDY    51  47  86 N22       30.18R
ROCKPORT       LGT RAIN  50  43  77 N17G24    30.20R
KINGSVILLE NAS LGT RAIN  51  48  89 N14       30.18R
ALICE          LGT RAIN  51  45  79 N15       30.21R
FALFURRIAS     CLOUDY    51  46  82 N9G17     30.18F
$$

...VICTORIA AREA OBSERVATIONS...

CITY           SKY/WX    TMP DP  RH WIND       PRES   REMARKS
VICTORIA       CLOUDY    49  41  74 N15G23    30.21R
BEEVILLE       LGT RAIN  49  41  73 N13G23    30.20R
PLEASANTON     CLOUDY    49  38  65 N9        30.23S
SAN ANTONIO    CLOUDY    46  35  65 N15G22    30.22F
$$

...LAREDO AREA OBSERVATIONS...

CITY           SKY/WX    TMP DP  RH WIND       PRES   REMARKS
LAREDO         NOT AVBL
COTULLA        CLOUDY   N/A N/A N/A N7        30.24R
DEL RIO        CLOUDY    47  31  53 NW6       30.31R
MCALLEN        CLOUDY    56  47  71 NW16G25   30.19R
HEBBRONVILLE   LGT RAIN  49  46  88 N14       30.22S
$$

...OTHER TEXAS OBSERVATIONS...

CITY           SKY/WX    TMP DP  RH WIND       PRES   REMARKS
BROWNSVILLE    LGT RAIN  56  53  90 N16G23    30.14R
HOUSTON        CLOUDY    47  43  86 N15       30.18R
COL. STATION   CLOUDY    42  36  79 N13       30.25R
AUSTIN         CLOUDY    43  34  70 N14       30.27R
WACO           CLOUDY    38  30  73 N13       30.30R WCI  30
FORT WORTH     CLOUDY    36  26  67 N12       30.30S WCI  28
WICHITA FALLS  CLEAR     28  23  81 N7        30.33F
LUBBOCK        PTCLDY    25  20  81 CALM      30.27R
EL PASO        PTCLDY    36  31  82 S5        30.26R
$$

...MARINE OBSERVATIONS...

STATION/POSITION TIME  SKY/WX   TEMP    WIND        PRES    VSBY  WAVE   SWELL
                                AIR SEA DIR/SP/G                  HT/PER HT/PER
                 (UTC)          (F)     (DEG/KT/KT) (MB)    (MI)  (FT/S) (FT/S)
PORT ARANSAS     0400            51 62  350/ 18/ 23 1021.9R
BUOY 90 E PORT A 0400            59 72  360/ 19/ 21 1019.2R         6/ 5
BUOY 45 SE BAFFI 0400            58 71  350/ 25/ 29 1019.0R         6/ 6
BUOY 200 E PT IS 0400            74 74  160/  8/  8 1018.0R         4/ 6   3/ 6
BUOY 15 E GALVES 0400            54 61  350/ 19/ 23 1018.8R         4/ 4   2/ 7
$$



USA.gov is the U.S. government's official web portal to all federal, state and local government web resources and services.